Showing default

AEHF 4 (USA 288), 43651

Orbit data source: Space-Track

AEHF 4 (USA 288), 43651 is a payload satellite owned by USAF MCSW (US) in GEO that was launched on Wed, 17 Oct 2018 UTC via an ATLAS V 551 launch vehicle from the Air Force Eastern Test Range (AFETR). Payloads include a variety of satellites, spacecraft, and rockets equipped with specific instruments for various scientific and technological missions. These include communications satellites like Starlink; space stations such as the ISS; scientific satellites like the Hubble; Earth observation satellites from companies like Planet Labs, Umbra, and HawkEye 360; GPS; miniature CubeSats for education and research; and military/defense satellites.

Loading next visibility...
AEHF 4 (USA 288) details
Identifier
43651, 2018-079A
Orbit
GEO
Last TLE update23 hours ago
Origin
Flag of USUSAF MCSW (US)
ManufacturerLMSS
MissionOperational Defense Communications
Bus & MotorA2100M, BT-4/AJ-EP?
Mass6,200 kg wet, ~4,000 kg dry
Launch date (UTC)
2018-10-17 (6 years ago)
Launch vehicle
ATLAS V 551
Launch site
Air Force Eastern Test Range (AFETR)
Object type
Payload
Rocket body
Debris
Shape & HBRBox + 2 Pan, 27 m
Radar Cross Section35.027 m², Large (>1 m²)

Expand to show TLE details & history

TLE from 23 hours ago
0 AEHF 4 (USA 288)
1 43651U 18079A   24360.51550188 -.00000247  00000-0  00000-0 0  9996
2 43651   1.6417 333.4314 0049674   6.4388 232.6777  1.00267881 22898
Epoch: 2024-12-25T12:22Z
Definitive object data (Epoch: 2024-12-25T12:22:19.362Z)
Latitude-1.41623°
Longitude-68.0121°
Altitude35,914.174 km
Speed3.065 km/s
True Right ascension14h 08m 18s
True Declination-1° 24' 53"
Sunlit
Object was in daylight at TLE epoch
Visualization TLE readout
Latitude-1.18057°
Longitude-81.17607°
Altitude35,948.746 km
Speed3.063 km/s
Apparent Right ascension13h 33m 16s
Apparent Declination-7° 18' 34"
Sunlit
Object is in daylight
Visualization observer readout
Local Sidereal Time10:46:55
Azimuth131.065° SE
Elevation29.168°
Doppler factor1
Orbital elements
Apogee altitude35,998.218 km
Perigee altitude35,579.299 km
Semi-major axis42,166.896 km
Eccentricity0.0049674
Inclination1.6417°
RAAN333.4314°
Arg. of periapsis6.4388°
True anomaly232.22674°
Mean anomaly232.6777°
Eccentric anomaly232.45205°
Mean motion0.25066 °/min
BSTARUnknown
Orbital period1436.21 mins
Loading historical data...
43651 neighbors
Authenticating...
Loading maneuver chart data...

AEHF 4 (USA 288) Visibility forecast

Observer location: undefined°, undefined

Span
Click to sort rows by Start time (UTC) header in descending order
Start Az.
Max El. time (UTC)
Max El. Az.
Max El.
End time (UTC)
End Az.
1440 mins2024-12-26 11:25:34.979Z131.078° SE2024-12-27 02:19:34.979Z128.017° SE27.257°2024-12-27 11:25:34.979Z131.116° SE
|